Location: Unspecified
(0.0000°N, 0.0000°E)
Time: 17:20:42
(UTC+00:00)

Envisat - Pass Details

Date: 22 January 2020
Orbit: 764 x 766 km, 98.1° (Epoch: 23 January)

Event Time Altitude Azimuth Distance (km) Brightness Sun altitude
Rises 19:06:26 0° 193° (SSW) 3,230 6.7 -12.9°
Reaches altitude 10° 19:09:12 10° 208° (SSW) 2,301 6.2 -13.6°
Maximum altitude 19:13:02 22° 258° (WSW) 1,631 5.7 -14.5°
Drops below altitude 10° 19:16:51 10° 307° (NW) 2,293 5.9 -15.4°
Sets 19:19:38 0° 322° (NW) 3,216 6.5 -16.0°
